Tracking 28790 objects as of 18-Apr-2024
HD Live streaming from Space Station
objects crossing your sky now

COSMOS 532

Track COSMOS 532 now!
10-day predictions
COSMOS 532 is classified as:


NORAD ID: 6267
Int'l Code: 1972-087E
Perigee: 1,306.0 km
Apogee: 1,474.5 km
Inclination: 74.0 °
Period: 113.4 minutes
Semi major axis: 7761 km
RCS: 0.7139 m2 (medium)
Launch date: November 1, 1972
Source: Commonwealth of Independent States (former USSR) (CIS)
Launch site: PLESETSK MISSILE AND SPACE COMPLEX (PKMTR)
Your satellite tracking list
Your tracking list is empty




NASA's NSSDC Master Catalog

Two Line Element Set (TLE):
1 06267U 72087E   24109.44365778  .00000020  00000-0  18297-3 0  9997
2 06267  74.0316 105.2624 0108564 300.1247 229.2331 12.69716237385052
Source of the keplerian elements: AFSPC